• In Hungary
  • List of Countries
  • For 7 days
  • Water Temperature
  • Satellite Maps
  • Weather Map
  • News
  • Weather Widgets
  • user-avatar
    Login

    Hourly Weather Boyary (Krasnoe)

    Today, 12 December, Tuesday

    Time Temperature Precipitation Wind Pressure Humidity
    00:00 -4°C° 0 mm 5 mps 737 mmHg 93%
    01:00 -4°C° 0 mm 5 mps 737 mmHg 93%
    02:00 -4°C° 0 mm 5 mps 737 mmHg 93%
    03:00 -2°C° 0.3 mm 5 mps 736 mmHg 93%
    04:00 -2°C° 0.3 mm 5 mps 736 mmHg 94%
    05:00 -2°C° 0.3 mm 6 mps 736 mmHg 94%
    06:00 -2°C° 0.2 mm 6 mps 736 mmHg 95%
    07:00 -1°C° 0.2 mm 6 mps 736 mmHg 95%
    08:00 0°C° 0 mm 5 mps 735 mmHg 96%
    09:00 0°C° 0 mm 5 mps 735 mmHg 96%
    10:00 0°C° 0 mm 5 mps 735 mmHg 97%
    11:00 +1°C° 0 mm 6 mps 735 mmHg 97%
    12:00 +1°C° 0 mm 5 mps 735 mmHg 97%
    13:00 +1°C° 0 mm 5 mps 735 mmHg 97%
    14:00 +1°C° 0 mm 5 mps 735 mmHg 97%
    15:00 +2°C° 0 mm 5 mps 735 mmHg 97%
    16:00 +2°C° 0 mm 5 mps 736 mmHg 96%
    17:00 +2°C° 0 mm 5 mps 736 mmHg 96%
    18:00 +2°C° 0 mm 5 mps 736 mmHg 96%
    19:00 +2°C° 0 mm 5 mps 737 mmHg 95%
    20:00 +2°C° 0 mm 5 mps 737 mmHg 95%
    21:00 +2°C° 0 mm 5 mps 738 mmHg 92%
    22:00 +1°C° 0 mm 5 mps 739 mmHg 89%
    23:00 +1°C° 0 mm 6 mps 739 mmHg 86%

    Tomorrow, 13 December, Wednesday

    Time Temperature Precipitation Wind Pressure Humidity
    00:00 -1°C° 0 mm 6 mps 740 mmHg 85%
    01:00 -1°C° 0 mm 6 mps 740 mmHg 83%
    02:00 -2°C° 0 mm 6 mps 741 mmHg 82%
    03:00 -2°C° 0 mm 6 mps 741 mmHg 82%
    04:00 -2°C° 0 mm 6 mps 742 mmHg 82%
    05:00 -2°C° 0 mm 6 mps 742 mmHg 82%
    06:00 -2°C° 0 mm 6 mps 742 mmHg 83%
    07:00 -2°C° 0 mm 6 mps 743 mmHg 83%
    08:00 -2°C° 0 mm 6 mps 743 mmHg 84%
    09:00 -1°C° 0 mm 5 mps 744 mmHg 84%
    10:00 -1°C° 0 mm 5 mps 745 mmHg 83%
    11:00 -1°C° 0 mm 4 mps 745 mmHg 83%
    12:00 -1°C° 0 mm 4 mps 746 mmHg 83%
    13:00 -1°C° 0 mm 4 mps 746 mmHg 83%
    14:00 0°C° 0 mm 3 mps 746 mmHg 84%
    15:00 -1°C° 0 mm 3 mps 746 mmHg 86%
    16:00 -2°C° 0 mm 2 mps 746 mmHg 89%
    17:00 -2°C° 0 mm 2 mps 746 mmHg 92%
    18:00 -3°C° 0 mm 2 mps 746 mmHg 92%
    19:00 -3°C° 0 mm 2 mps 746 mmHg 92%
    20:00 -3°C° 0 mm 2 mps 746 mmHg 92%
    21:00 -3°C° 0 mm 2 mps 746 mmHg 92%
    22:00 -3°C° 0 mm 2 mps 745 mmHg 91%
    23:00 -3°C° 0 mm 2 mps 745 mmHg 91%

    Day after tomorrow, 14 December, Thursday

    Time Temperature Precipitation Wind Pressure Humidity
    00:00 -3°C° 0 mm 2 mps 745 mmHg 90%
    01:00 -3°C° 0 mm 2 mps 744 mmHg 90%
    02:00 -4°C° 0 mm 3 mps 744 mmHg 90%
    03:00 -5°C° 0 mm 3 mps 743 mmHg 90%
    04:00 -5°C° 0 mm 3 mps 742 mmHg 89%
    05:00 -5°C° 0 mm 4 mps 742 mmHg 89%
    06:00 -5°C° 0 mm 4 mps 741 mmHg 90%
    07:00 -5°C° 0 mm 4 mps 741 mmHg 90%
    08:00 -5°C° 0 mm 4 mps 740 mmHg 91%
    09:00 -5°C° 0 mm 5 mps 739 mmHg 90%
    10:00 -5°C° 0 mm 5 mps 739 mmHg 89%
    11:00 -4°C° 0 mm 5 mps 738 mmHg 88%
    12:00 -3°C° 0 mm 6 mps 737 mmHg 88%
    13:00 -3°C° 0 mm 6 mps 736 mmHg 87%
    14:00 -2°C° 0 mm 6 mps 736 mmHg 87%
    15:00 -2°C° 0.1 mm 7 mps 735 mmHg 86%
    16:00 -2°C° 0.1 mm 7 mps 735 mmHg 86%
    17:00 -2°C° 0.1 mm 7 mps 734 mmHg 85%
    18:00 -2°C° 0.3 mm 7 mps 734 mmHg 85%
    19:00 -1°C° 0.3 mm 7 mps 733 mmHg 84%
    20:00 -1°C° 0.3 mm 7 mps 733 mmHg 84%
    21:00 -1°C° 0 mm 7 mps 733 mmHg 82%
    22:00 -2°C° 0 mm 7 mps 733 mmHg 79%
    23:00 -2°C° 0 mm 7 mps 733 mmHg 77%

    15 December, Friday

    Time Temperature Precipitation Wind Pressure Humidity
    00:00 -2°C° 0 mm 7 mps 734 mmHg 77%
    01:00 -3°C° 0 mm 7 mps 734 mmHg 77%
    02:00 -3°C° 0 mm 7 mps 735 mmHg 77%
    03:00 -3°C° 0 mm 6 mps 735 mmHg 79%
    04:00 -4°C° 0 mm 5 mps 735 mmHg 81%
    05:00 -3°C° 0 mm 4 mps 735 mmHg 83%
    06:00 -3°C° 0 mm 4 mps 735 mmHg 84%
    07:00 -3°C° 0 mm 4 mps 735 mmHg 86%
    08:00 -3°C° 0 mm 4 mps 735 mmHg 88%
    09:00 -2°C° 0 mm 5 mps 735 mmHg 87%
    10:00 -2°C° 0 mm 7 mps 734 mmHg 85%
    11:00 -1°C° 0 mm 8 mps 734 mmHg 83%
    12:00 -1°C° 0.1 mm 8 mps 733 mmHg 84%
    13:00 -1°C° 0.1 mm 8 mps 732 mmHg 84%
    14:00 0°C° 0.1 mm 9 mps 731 mmHg 84%
    15:00 0°C° 0.7 mm 8 mps 731 mmHg 86%
    16:00 0°C° 0.7 mm 8 mps 730 mmHg 88%
    17:00 0°C° 0.7 mm 8 mps 730 mmHg 89%
    18:00 -1°C° 0.2 mm 7 mps 731 mmHg 87%
    19:00 -1°C° 0.2 mm 7 mps 731 mmHg 85%
    20:00 -2°C° 0.2 mm 7 mps 731 mmHg 82%
    21:00 -2°C° 0 mm 6 mps 732 mmHg 83%
    22:00 -2°C° 0 mm 6 mps 733 mmHg 84%
    23:00 -2°C° 0 mm 6 mps 734 mmHg 85%

    16 December, Saturday

    Time Temperature Precipitation Wind Pressure Humidity
    00:00 -3°C° 0 mm 6 mps 735 mmHg 87%
    01:00 -2°C° 0 mm 5 mps 735 mmHg 88%
    02:00 -3°C° 0 mm 4 mps 736 mmHg 90%
    03:00 -3°C° 0 mm 4 mps 736 mmHg 91%
    04:00 -3°C° 0 mm 4 mps 736 mmHg 92%
    05:00 -3°C° 0 mm 4 mps 737 mmHg 93%
    06:00 -3°C° 0 mm 4 mps 737 mmHg 93%
    07:00 -3°C° 0 mm 4 mps 737 mmHg 92%
    08:00 -3°C° 0 mm 4 mps 738 mmHg 91%
    09:00 -3°C° 0 mm 4 mps 738 mmHg 91%
    10:00 -2°C° 0 mm 3 mps 738 mmHg 90%
    11:00 -2°C° 0 mm 3 mps 739 mmHg 89%
    12:00 -1°C° 0 mm 3 mps 739 mmHg 89%
    13:00 -1°C° 0 mm 3 mps 739 mmHg 89%
    14:00 -1°C° 0 mm 2 mps 739 mmHg 89%
    15:00 -2°C° 0 mm 2 mps 739 mmHg 90%
    16:00 -2°C° 0 mm 2 mps 739 mmHg 91%
    17:00 -3°C° 0 mm 2 mps 739 mmHg 92%
    18:00 -4°C° 0 mm 3 mps 739 mmHg 91%
    19:00 -4°C° 0 mm 3 mps 740 mmHg 91%
    20:00 -4°C° 0 mm 3 mps 740 mmHg 90%
    21:00 -4°C° 0 mm 3 mps 740 mmHg 90%
    22:00 -4°C° 0 mm 3 mps 740 mmHg 90%
    23:00 -4°C° 0 mm 3 mps 741 mmHg 90%

    17 December, Sunday

    Time Temperature Precipitation Wind Pressure Humidity
    00:00 -2°C° 0 mm 3 mps 741 mmHg 90%
    01:00 -2°C° 0 mm 3 mps 741 mmHg 90%
    02:00 -2°C° 0 mm 3 mps 742 mmHg 90%
    03:00 -2°C° 0 mm 3 mps 742 mmHg 90%
    04:00 -2°C° 0 mm 3 mps 742 mmHg 90%
    05:00 -1°C° 0 mm 3 mps 742 mmHg 91%
    06:00 -2°C° 0 mm 3 mps 743 mmHg 91%
    07:00 -2°C° 0 mm 3 mps 743 mmHg 91%
    08:00 -2°C° 0 mm 3 mps 743 mmHg 91%
    09:00 -1°C° 0 mm 3 mps 744 mmHg 89%
    10:00 -1°C° 0 mm 3 mps 744 mmHg 87%
    11:00 -2°C° 0 mm 4 mps 744 mmHg 85%
    12:00 -1°C° 0 mm 3 mps 744 mmHg 84%
    13:00 -1°C° 0 mm 3 mps 745 mmHg 83%
    14:00 -1°C° 0 mm 3 mps 745 mmHg 82%
    15:00 -1°C° 0 mm 3 mps 745 mmHg 85%
    16:00 -2°C° 0 mm 2 mps 745 mmHg 88%
    17:00 -2°C° 0 mm 2 mps 746 mmHg 91%
    18:00 -2°C° 0 mm 2 mps 746 mmHg 91%
    19:00 -2°C° 0 mm 2 mps 747 mmHg 92%
    20:00 -2°C° 0 mm 2 mps 747 mmHg 93%
    21:00 -2°C° 0 mm 2 mps 747 mmHg 93%
    22:00 -3°C° 0 mm 2 mps 747 mmHg 94%
    23:00 -3°C° 0 mm 2 mps 748 mmHg 94%
    Show more